Wetterdaten: Sonntag, 24.04.2016
Datum Zeit Auen-Temp. Temp gefhlt Luftfeuchte Luftdruck Regen Wind Richtung Richtung Sonnenschein Taupunkt Windben
24.04.2016 00:00 0,6 C 0,3 C 90 % 1011,1 hPa 0,0 mm 3,6 km/h (1 Bft) W-NW 292 0 min -0,8 C 6,3 km/h (2 Bft)
24.04.2016 00:05 0,6 C 0,3 C 90 % 1011,1 hPa 0,0 mm 4,8 km/h (1 Bft) W 270 0 min -0,8 C 9,8 km/h (2 Bft)
24.04.2016 00:10 0,5 C 0,3 C 90 % 1011,1 hPa 0,0 mm 4,5 km/h (1 Bft) NW 315 0 min -0,9 C 10,1 km/h (2 Bft)
24.04.2016 00:15 0,4 C -0,2 C 90 % 1011,5 hPa 0,0 mm 7,2 km/h (2 Bft) NW 315 0 min -1,0 C 18,8 km/h (3 Bft)
24.04.2016 00:20 0,3 C -0,4 C 90 % 1011,5 hPa 0,0 mm 8,6 km/h (2 Bft) NW 315 0 min -1,1 C 9,5 km/h (2 Bft)
24.04.2016 00:25 0,3 C -0,5 C 90 % 1011,5 hPa 0,0 mm 8,9 km/h (2 Bft) NW 315 0 min -1,1 C 19,4 km/h (3 Bft)
24.04.2016 00:30 0,2 C -0,6 C 90 % 1011,5 hPa 0,0 mm 8,9 km/h (2 Bft) NW 315 0 min -1,2 C 12,5 km/h (3 Bft)
24.04.2016 00:35 0,2 C -0,4 C 90 % 1011,5 hPa 0,7 mm 7,2 km/h (2 Bft) W-NW 292 0 min -1,2 C 8,9 km/h (2 Bft)
24.04.2016 00:40 0,2 C -0,5 C 90 % 1011,5 hPa 0,0 mm 7,5 km/h (2 Bft) W-NW 292 0 min -1,2 C 5,7 km/h (1 Bft)
24.04.2016 00:45 0,3 C -0,1 C 90 % 1011,5 hPa 0,0 mm 4,8 km/h (1 Bft) W-NW 292 0 min -1,1 C 4,8 km/h (1 Bft)
24.04.2016 00:50 0,2 C -0,1 C 90 % 1011,5 hPa 0,0 mm 4,5 km/h (1 Bft) W-NW 292 0 min -1,2 C 5,1 km/h (1 Bft)
24.04.2016 00:55 0,3 C 0,0 C 89 % 1011,5 hPa 0,0 mm 1,5 km/h (1 Bft) W-NW 292 0 min -1,3 C 0,0 km/h (0 Bft)
24.04.2016 01:00 0,2 C -0,1 C 89 % 1011,5 hPa 0,0 mm 0,0 km/h (0 Bft) W-NW 292 0 min -1,4 C 0,0 km/h (0 Bft)
24.04.2016 01:05 0,2 C -0,1 C 89 % 1011,5 hPa 0,0 mm 0,0 km/h (0 Bft) W-NW 292 0 min -1,4 C 0,0 km/h (0 Bft)
24.04.2016 01:10 0,2 C -0,1 C 89 % 1011,5 hPa 0,0 mm 0,0 km/h (0 Bft) W-NW 292 0 min -1,4 C 0,0 km/h (0 Bft)
24.04.2016 01:15 0,2 C 0,0 C 85 % 1011,3 hPa 0,0 mm 0,3 km/h (0 Bft) W-NW 292 0 min -2,0 C 3,3 km/h (1 Bft)
24.04.2016 01:20 0,3 C 0,0 C 89 % 1011,3 hPa 0,0 mm 0,3 km/h (0 Bft) W-NW 292 0 min -1,3 C 0,0 km/h (0 Bft)
24.04.2016 01:25 0,3 C 0,0 C 89 % 1011,3 hPa 0,0 mm 0,6 km/h (0 Bft) W-NW 292 0 min -1,3 C 0,0 km/h (0 Bft)
24.04.2016 01:30 0,3 C 0,0 C 89 % 1011,3 hPa 0,0 mm 0,3 km/h (0 Bft) W-NW 292 0 min -1,3 C 0,0 km/h (0 Bft)
24.04.2016 01:35 0,3 C 0,0 C 89 % 1011,6 hPa 0,0 mm 0,9 km/h (0 Bft) W-NW 292 0 min -1,3 C 3,6 km/h (1 Bft)
24.04.2016 01:40 0,3 C 0,0 C 89 % 1011,6 hPa 0,0 mm 1,5 km/h (1 Bft) W-NW 292 0 min -1,3 C 3,0 km/h (1 Bft)
24.04.2016 01:45 0,3 C 0,0 C 89 % 1011,6 hPa 0,0 mm 0,9 km/h (0 Bft) W-NW 292 0 min -1,3 C 0,0 km/h (0 Bft)
24.04.2016 01:50 0,3 C 0,0 C 89 % 1011,6 hPa 0,0 mm 0,6 km/h (0 Bft) W-NW 292 0 min -1,3 C 5,1 km/h (1 Bft)
24.04.2016 01:55 0,3 C 0,0 C 89 % 1011,5 hPa 0,0 mm 0,6 km/h (0 Bft) W-NW 292 0 min -1,3 C 0,0 km/h (0 Bft)
24.04.2016 02:00 0,3 C 0,0 C 89 % 1011,5 hPa 0,0 mm 0,3 km/h (0 Bft) W-NW 292 0 min -1,3 C 0,0 km/h (0 Bft)
24.04.2016 02:05 0,3 C 0,0 C 89 % 1011,5 hPa 0,0 mm 0,3 km/h (0 Bft) W-NW 292 0 min -1,3 C 0,0 km/h (0 Bft)
24.04.2016 02:08 0,2 C -0,1 C 89 % 1011,5 hPa 0,0 mm 0,3 km/h (0 Bft) W-NW 292 0 min -1,4 C 0,0 km/h (0 Bft)
24.04.2016 02:10 0,2 C -0,1 C 89 % 1011,5 hPa 0,0 mm 0,3 km/h (0 Bft) W-NW 292 0 min -1,4 C 0,0 km/h (0 Bft)
24.04.2016 02:14 0,2 C -0,1 C 89 % 1011,2 hPa 0,0 mm 0,0 km/h (0 Bft) W-NW 292 0 min -1,4 C 0,0 km/h (0 Bft)
24.04.2016 02:20 0,3 C 0,0 C 89 % 1011,2 hPa 0,0 mm 0,0 km/h (0 Bft) W-NW 292 0 min -1,3 C 0,0 km/h (0 Bft)
24.04.2016 02:25 0,3 C 0,0 C 89 % 1011,2 hPa 0,0 mm 0,0 km/h (0 Bft) W-NW 292 0 min -1,3 C 0,0 km/h (0 Bft)
24.04.2016 02:30 0,3 C 0,0 C 89 % 1011,2 hPa 0,0 mm 0,0 km/h (0 Bft) W-NW 292 0 min -1,3 C 0,0 km/h (0 Bft)
24.04.2016 02:35 0,3 C 0,0 C 89 % 1011,1 hPa 0,0 mm 0,0 km/h (0 Bft) W-NW 292 0 min -1,3 C 0,0 km/h (0 Bft)
24.04.2016 02:40 0,3 C 0,0 C 89 % 1011,1 hPa 0,0 mm 0,0 km/h (0 Bft) W-NW 292 0 min -1,3 C 0,0 km/h (0 Bft)
24.04.2016 02:45 0,3 C 0,0 C 89 % 1011,1 hPa 0,0 mm 0,0 km/h (0 Bft) W-NW 292 0 min -1,3 C 0,0 km/h (0 Bft)
24.04.2016 02:50 0,3 C 0,0 C 89 % 1011,1 hPa 0,0 mm 0,0 km/h (0 Bft) W-NW 292 0 min -1,3 C 0,0 km/h (0 Bft)
24.04.2016 02:55 0,2 C -0,1 C 89 % 1011,1 hPa 0,0 mm 0,0 km/h (0 Bft) W-NW 292 0 min -1,4 C 0,0 km/h (0 Bft)
24.04.2016 03:00 0,2 C -0,1 C 89 % 1011,1 hPa 0,0 mm 0,0 km/h (0 Bft) W-NW 292 0 min -1,4 C 0,0 km/h (0 Bft)
24.04.2016 03:05 0,2 C -0,1 C 89 % 1011,1 hPa 0,0 mm 0,0 km/h (0 Bft) W-NW 292 0 min -1,4 C 0,0 km/h (0 Bft)
24.04.2016 03:10 0,2 C -0,1 C 89 % 1011,1 hPa 0,0 mm 0,0 km/h (0 Bft) W-NW 292 0 min -1,4 C 0,0 km/h (0 Bft)
24.04.2016 03:15 0,2 C -0,1 C 89 % 1011,1 hPa 0,0 mm 0,0 km/h (0 Bft) W-NW 292 0 min -1,4 C 0,0 km/h (0 Bft)
24.04.2016 03:20 0,2 C -0,1 C 89 % 1011,1 hPa 0,0 mm 0,0 km/h (0 Bft) W-NW 292 0 min -1,4 C 0,0 km/h (0 Bft)
24.04.2016 03:25 0,2 C -0,1 C 89 % 1011,1 hPa 0,0 mm 0,0 km/h (0 Bft) W-NW 292 0 min -1,4 C 0,0 km/h (0 Bft)
24.04.2016 03:30 0,2 C -0,1 C 89 % 1011,1 hPa 0,0 mm 0,0 km/h (0 Bft) W-NW 292 0 min -1,4 C 0,0 km/h (0 Bft)
24.04.2016 03:35 0,2 C -0,1 C 89 % 1010,9 hPa 0,0 mm 0,0 km/h (0 Bft) W-NW 292 0 min -1,4 C 0,0 km/h (0 Bft)
24.04.2016 03:40 0,2 C -0,1 C 89 % 1010,9 hPa 0,0 mm 0,0 km/h (0 Bft) W-NW 292 0 min -1,4 C 0,0 km/h (0 Bft)
24.04.2016 03:45 0,2 C -0,1 C 89 % 1010,9 hPa 0,0 mm 0,0 km/h (0 Bft) W-NW 292 0 min -1,4 C 0,0 km/h (0 Bft)
24.04.2016 03:50 0,2 C -0,1 C 89 % 1010,9 hPa 0,0 mm 0,0 km/h (0 Bft) W-NW 292 0 min -1,4 C 0,0 km/h (0 Bft)
24.04.2016 03:55 0,1 C -0,2 C 89 % 1010,9 hPa 0,0 mm 0,3 km/h (0 Bft) W-NW 292 0 min -1,5 C 5,1 km/h (1 Bft)
24.04.2016 04:00 0,1 C -0,2 C 89 % 1010,9 hPa 0,0 mm 0,9 km/h (0 Bft) W-NW 292 0 min -1,5 C 3,9 km/h (1 Bft)
24.04.2016 04:05 0,1 C -0,2 C 89 % 1010,9 hPa 0,0 mm 1,2 km/h (1 Bft) W-NW 292 0 min -1,5 C 0,0 km/h (0 Bft)
24.04.2016 04:10 0,1 C -0,2 C 89 % 1010,9 hPa 0,0 mm 0,6 km/h (0 Bft) W-NW 292 0 min -1,5 C 0,0 km/h (0 Bft)
24.04.2016 04:15 0,0 C -0,2 C 85 % 1010,9 hPa 0,0 mm 1,2 km/h (1 Bft) W-NW 292 0 min -2,2 C 6,6 km/h (2 Bft)
24.04.2016 04:20 0,0 C -0,2 C 85 % 1010,9 hPa 0,0 mm 3,9 km/h (1 Bft) W-NW 292 0 min -2,2 C 0,0 km/h (0 Bft)
24.04.2016 04:25 0,2 C -0,1 C 89 % 1010,9 hPa 0,0 mm 3,6 km/h (1 Bft) W-NW 292 0 min -1,4 C 3,9 km/h (1 Bft)
24.04.2016 04:30 0,2 C -0,1 C 89 % 1010,9 hPa 0,0 mm 3,0 km/h (1 Bft) W-NW 292 0 min -1,4 C 3,6 km/h (1 Bft)
24.04.2016 04:35 0,2 C -0,1 C 89 % 1010,9 hPa 0,0 mm 0,9 km/h (0 Bft) W-NW 292 0 min -1,4 C 0,0 km/h (0 Bft)
24.04.2016 04:40 0,2 C -0,1 C 89 % 1010,9 hPa 0,0 mm 0,3 km/h (0 Bft) W-NW 292 0 min -1,4 C 0,0 km/h (0 Bft)
24.04.2016 04:45 0,2 C -0,1 C 89 % 1010,9 hPa 0,0 mm 0,3 km/h (0 Bft) W-NW 292 0 min -1,4 C 0,0 km/h (0 Bft)
24.04.2016 04:50 0,2 C -0,1 C 89 % 1010,9 hPa 0,0 mm 0,3 km/h (0 Bft) W-NW 292 0 min -1,4 C 0,0 km/h (0 Bft)
24.04.2016 04:55 0,1 C -0,2 C 89 % 1010,8 hPa 0,0 mm 1,2 km/h (1 Bft) W-NW 292 0 min -1,5 C 0,0 km/h (0 Bft)
24.04.2016 05:00 0,1 C -0,2 C 89 % 1010,8 hPa 0,0 mm 1,5 km/h (1 Bft) W-NW 292 0 min -1,5 C 4,8 km/h (1 Bft)
24.04.2016 05:05 0,1 C -0,2 C 89 % 1010,8 hPa 0,0 mm 3,6 km/h (1 Bft) W-NW 292 0 min -1,5 C 3,9 km/h (1 Bft)
24.04.2016 05:08 0,0 C -0,3 C 85 % 1010,8 hPa 0,0 mm 4,8 km/h (1 Bft) W-NW 292 0 min -2,2 C 7,7 km/h (2 Bft)
24.04.2016 05:11 0,0 C -0,3 C 85 % 1010,8 hPa 0,0 mm 4,8 km/h (1 Bft) W-NW 292 0 min -2,2 C 7,7 km/h (2 Bft)
24.04.2016 05:15 0,0 C -0,2 C 85 % 1010,8 hPa 0,0 mm 3,0 km/h (1 Bft) W-NW 292 0 min -2,2 C 4,2 km/h (1 Bft)
24.04.2016 05:20 0,0 C -0,2 C 85 % 1010,8 hPa 0,0 mm 0,9 km/h (0 Bft) W-NW 292 0 min -2,2 C 3,3 km/h (1 Bft)
24.04.2016 05:25 0,0 C -0,3 C 89 % 1010,8 hPa 0,0 mm 0,3 km/h (0 Bft) W-NW 292 0 min -1,6 C 0,0 km/h (0 Bft)
24.04.2016 05:30 0,0 C -0,3 C 89 % 1010,8 hPa 0,0 mm 0,0 km/h (0 Bft) W-NW 292 0 min -1,6 C 0,0 km/h (0 Bft)
24.04.2016 05:35 -0,1 C -0,4 C 89 % 1010,8 hPa 0,0 mm 0,3 km/h (0 Bft) W-NW 292 0 min -1,7 C 3,0 km/h (1 Bft)
24.04.2016 05:40 -0,1 C -0,4 C 89 % 1010,8 hPa 0,0 mm 1,2 km/h (1 Bft) W-NW 292 0 min -1,7 C 3,9 km/h (1 Bft)
24.04.2016 05:45 -0,1 C -0,4 C 88 % 1010,8 hPa 0,0 mm 2,7 km/h (1 Bft) W-NW 292 0 min -1,8 C 3,9 km/h (1 Bft)
24.04.2016 05:50 -0,1 C -0,4 C 88 % 1010,8 hPa 0,0 mm 3,3 km/h (1 Bft) W-NW 292 0 min -1,8 C 5,1 km/h (1 Bft)
24.04.2016 05:55 -0,1 C -0,5 C 88 % 1010,7 hPa 0,0 mm 3,0 km/h (1 Bft) W-NW 292 0 min -1,8 C 4,2 km/h (1 Bft)
24.04.2016 06:00 -0,2 C -0,5 C 85 % 1010,7 hPa 0,0 mm 3,3 km/h (1 Bft) W-NW 292 0 min -2,4 C 6,9 km/h (2 Bft)
24.04.2016 06:05 -0,1 C -0,4 C 88 % 1010,7 hPa 0,0 mm 4,2 km/h (1 Bft) W-NW 292 0 min -1,8 C 8,3 km/h (2 Bft)
24.04.2016 06:10 -0,1 C -0,6 C 88 % 1010,7 hPa 0,0 mm 5,4 km/h (1 Bft) W-NW 292 0 min -1,8 C 6,6 km/h (2 Bft)
24.04.2016 06:15 -0,1 C -0,7 C 88 % 1010,6 hPa 0,0 mm 6,0 km/h (2 Bft) W-NW 292 0 min -1,8 C 11,9 km/h (2 Bft)
24.04.2016 06:20 -0,1 C -0,6 C 88 % 1010,6 hPa 0,0 mm 5,4 km/h (1 Bft) W-NW 292 0 min -1,8 C 7,2 km/h (2 Bft)
24.04.2016 06:25 -0,1 C -0,6 C 88 % 1010,6 hPa 0,0 mm 5,7 km/h (1 Bft) W-NW 292 0 min -1,8 C 4,8 km/h (1 Bft)
24.04.2016 06:30 -0,1 C -0,6 C 88 % 1010,6 hPa 0,0 mm 5,7 km/h (1 Bft) W-NW 292 0 min -1,8 C 6,9 km/h (2 Bft)
24.04.2016 06:35 -0,1 C -0,6 C 88 % 1010,7 hPa 0,0 mm 6,0 km/h (2 Bft) W-NW 292 0 min -1,8 C 5,1 km/h (1 Bft)
24.04.2016 06:40 -0,1 C -0,4 C 85 % 1010,7 hPa 0,0 mm 4,5 km/h (1 Bft) W-NW 292 0 min -2,3 C 3,3 km/h (1 Bft)
24.04.2016 06:45 -0,1 C -0,4 C 88 % 1010,7 hPa 0,0 mm 3,3 km/h (1 Bft) W-NW 292 0 min -1,8 C 6,9 km/h (2 Bft)
24.04.2016 06:50 -0,1 C -0,3 C 84 % 1010,7 hPa 0,0 mm 4,2 km/h (1 Bft) W-NW 292 0 min -2,5 C 3,9 km/h (1 Bft)
24.04.2016 06:55 -0,1 C -0,4 C 84 % 1010,8 hPa 0,0 mm 5,1 km/h (1 Bft) W-NW 292 0 min -2,5 C 6,0 km/h (2 Bft)
24.04.2016 07:00 -0,1 C -0,2 C 84 % 1010,8 hPa 0,0 mm 4,2 km/h (1 Bft) W-NW 292 0 min -2,5 C 4,5 km/h (1 Bft)
24.04.2016 07:05 0,0 C -0,1 C 84 % 1010,8 hPa 0,0 mm 3,0 km/h (1 Bft) W-NW 292 0 min -2,4 C 0,0 km/h (0 Bft)
24.04.2016 07:10 0,0 C -0,1 C 84 % 1010,8 hPa 0,0 mm 2,4 km/h (1 Bft) W-NW 292 0 min -2,4 C 5,4 km/h (1 Bft)
24.04.2016 07:15 0,0 C -0,1 C 84 % 1010,6 hPa 0,0 mm 1,2 km/h (1 Bft) W-NW 292 0 min -2,4 C 0,0 km/h (0 Bft)
24.04.2016 07:20 0,0 C -0,1 C 84 % 1010,6 hPa 0,0 mm 0,9 km/h (0 Bft) W-NW 292 0 min -2,4 C 0,0 km/h (0 Bft)
24.04.2016 07:25 0,2 C 0,0 C 84 % 1010,6 hPa 0,0 mm 0,6 km/h (0 Bft) W-NW 292 0 min -2,2 C 0,0 km/h (0 Bft)
24.04.2016 07:30 0,2 C 0,0 C 84 % 1010,6 hPa 0,0 mm 0,6 km/h (0 Bft) W-NW 292 0 min -2,2 C 0,0 km/h (0 Bft)
24.04.2016 07:35 0,0 C 0,0 C 84 % 1011,0 hPa 0,0 mm 0,9 km/h (0 Bft) W-NW 292 0 min -2,4 C 3,9 km/h (1 Bft)
24.04.2016 07:40 0,0 C -0,1 C 84 % 1011,0 hPa 0,0 mm 1,2 km/h (1 Bft) W-NW 292 0 min -2,4 C 4,8 km/h (1 Bft)
24.04.2016 07:45 0,0 C -0,1 C 84 % 1011,0 hPa 0,0 mm 1,2 km/h (1 Bft) W-NW 292 0 min -2,4 C 5,7 km/h (1 Bft)
24.04.2016 07:50 -0,1 C -0,2 C 84 % 1011,0 hPa 0,0 mm 1,5 km/h (1 Bft) W-NW 292 0 min -2,5 C 4,2 km/h (1 Bft)
24.04.2016 07:55 -0,2 C -0,3 C 84 % 1010,9 hPa 0,0 mm 1,8 km/h (1 Bft) W-NW 292 0 min -2,6 C 0,0 km/h (0 Bft)
24.04.2016 08:00 -0,2 C -0,3 C 84 % 1010,9 hPa 0,0 mm 0,9 km/h (0 Bft) W-NW 292 0 min -2,6 C 3,3 km/h (1 Bft)
24.04.2016 08:05 -0,2 C -0,2 C 84 % 1010,9 hPa 0,0 mm 1,2 km/h (1 Bft) W-NW 292 0 min -2,6 C 3,6 km/h (1 Bft)
24.04.2016 08:10 -0,2 C -0,2 C 84 % 1010,9 hPa 0,0 mm 1,2 km/h (1 Bft) W-NW 292 0 min -2,6 C 0,0 km/h (0 Bft)
24.04.2016 08:12 -0,2 C -0,2 C 84 % 1010,9 hPa 0,0 mm 1,2 km/h (1 Bft) W-NW 292 0 min -2,6 C 0,0 km/h (0 Bft)
24.04.2016 08:15 -0,2 C -0,1 C 84 % 1011,0 hPa 0,0 mm 0,9 km/h (0 Bft) W-NW 292 0 min -2,6 C 3,3 km/h (1 Bft)
24.04.2016 08:20 -0,2 C -0,1 C 84 % 1011,0 hPa 0,0 mm 1,5 km/h (1 Bft) W-NW 292 0 min -2,6 C 3,6 km/h (1 Bft)
24.04.2016 08:25 -0,2 C -0,2 C 84 % 1011,0 hPa 0,0 mm 3,0 km/h (1 Bft) W-NW 292 0 min -2,6 C 3,3 km/h (1 Bft)
24.04.2016 08:30 -0,2 C -0,2 C 84 % 1011,0 hPa 0,0 mm 3,0 km/h (1 Bft) W-NW 292 0 min -2,6 C 5,1 km/h (1 Bft)
24.04.2016 08:35 -0,2 C -0,1 C 84 % 1011,0 hPa 0,0 mm 1,8 km/h (1 Bft) W-NW 292 0 min -2,6 C 4,8 km/h (1 Bft)
24.04.2016 08:40 -0,2 C 0,0 C 84 % 1011,0 hPa 0,0 mm 0,9 km/h (0 Bft) W-NW 292 0 min -2,6 C 0,0 km/h (0 Bft)
24.04.2016 08:45 -0,2 C 0,1 C 84 % 1011,0 hPa 0,0 mm 0,3 km/h (0 Bft) W-NW 292 0 min -2,6 C 0,0 km/h (0 Bft)
24.04.2016 08:50 -0,2 C 0,1 C 84 % 1011,0 hPa 0,0 mm 0,0 km/h (0 Bft) W-NW 292 0 min -2,6 C 0,0 km/h (0 Bft)
24.04.2016 08:55 -0,1 C 0,1 C 84 % 1011,2 hPa 0,0 mm 0,6 km/h (0 Bft) W-NW 292 0 min -2,5 C 6,3 km/h (2 Bft)
24.04.2016 09:00 -0,2 C 0,1 C 84 % 1011,2 hPa 0,0 mm 0,6 km/h (0 Bft) W-NW 292 0 min -2,6 C 0,0 km/h (0 Bft)
24.04.2016 09:05 -0,2 C 0,0 C 84 % 1011,2 hPa 0,0 mm 1,2 km/h (1 Bft) W-NW 292 0 min -2,6 C 3,6 km/h (1 Bft)
24.04.2016 09:10 -0,2 C 0,0 C 84 % 1011,2 hPa 0,0 mm 1,2 km/h (1 Bft) W-NW 292 0 min -2,6 C 6,3 km/h (2 Bft)
24.04.2016 09:15 -0,2 C 0,0 C 84 % 1011,2 hPa 0,0 mm 3,9 km/h (1 Bft) W-NW 292 0 min -2,6 C 6,0 km/h (2 Bft)
24.04.2016 09:20 -0,2 C -0,1 C 84 % 1011,2 hPa 0,0 mm 4,8 km/h (1 Bft) W-NW 292 0 min -2,6 C 4,5 km/h (1 Bft)
24.04.2016 09:25 -0,2 C 0,0 C 84 % 1011,2 hPa 0,0 mm 4,2 km/h (1 Bft) W-NW 292 0 min -2,6 C 3,6 km/h (1 Bft)
24.04.2016 09:30 -0,2 C 0,1 C 84 % 1011,2 hPa 0,0 mm 3,0 km/h (1 Bft) W-NW 292 0 min -2,6 C 0,0 km/h (0 Bft)
24.04.2016 09:35 -0,1 C 0,2 C 84 % 1011,1 hPa 0,0 mm 1,8 km/h (1 Bft) W-NW 292 0 min -2,5 C 0,0 km/h (0 Bft)
24.04.2016 09:40 0,0 C 0,6 C 84 % 1011,1 hPa 0,0 mm 1,5 km/h (1 Bft) W-NW 292 0 min -2,4 C 0,0 km/h (0 Bft)
24.04.2016 09:45 0,2 C 1,2 C 84 % 1011,1 hPa 0,0 mm 0,0 km/h (0 Bft) W-NW 292 0 min -2,2 C 0,0 km/h (0 Bft)
24.04.2016 09:50 0,4 C 1,6 C 85 % 1011,1 hPa 0,0 mm 0,0 km/h (0 Bft) W-NW 292 0 min -1,8 C 0,0 km/h (0 Bft)
24.04.2016 09:55 0,6 C 1,9 C 85 % 1011,0 hPa 0,0 mm 2,4 km/h (1 Bft) W-NW 292 0 min -1,6 C 3,9 km/h (1 Bft)
24.04.2016 10:00 0,7 C 2,2 C 84 % 1011,0 hPa 0,0 mm 3,6 km/h (1 Bft) NW 315 0 min -1,7 C 5,4 km/h (1 Bft)
24.04.2016 10:05 0,9 C 2,3 C 84 % 1011,0 hPa 0,0 mm 2,7 km/h (1 Bft) W-NW 292 0 min -1,5 C 5,1 km/h (1 Bft)
24.04.2016 10:10 1,0 C 2,5 C 84 % 1011,0 hPa 0,0 mm 3,0 km/h (1 Bft) W-NW 292 0 min -1,4 C 7,2 km/h (2 Bft)
24.04.2016 10:15 1,1 C 2,9 C 84 % 1011,2 hPa 0,0 mm 3,0 km/h (1 Bft) W-NW 292 0 min -1,3 C 3,0 km/h (1 Bft)
24.04.2016 10:20 1,3 C 3,2 C 84 % 1011,2 hPa 0,0 mm 3,6 km/h (1 Bft) W 270 0 min -1,1 C 4,8 km/h (1 Bft)
24.04.2016 10:25 1,4 C 3,6 C 84 % 1011,2 hPa 0,0 mm 4,2 km/h (1 Bft) NW 315 0 min -1,0 C 6,0 km/h (2 Bft)
24.04.2016 10:30 1,5 C 3,8 C 84 % 1011,2 hPa 0,0 mm 4,2 km/h (1 Bft) NW 315 0 min -0,9 C 8,6 km/h (2 Bft)
24.04.2016 10:35 1,7 C 4,5 C 84 % 1011,3 hPa 0,0 mm 4,2 km/h (1 Bft) W 270 0 min -0,7 C 6,6 km/h (2 Bft)
24.04.2016 10:40 1,9 C 5,2 C 84 % 1011,3 hPa 0,7 mm 4,5 km/h (1 Bft) W-SW 247 0 min -0,5 C 4,8 km/h (1 Bft)
24.04.2016 10:45 1,9 C 4,7 C 83 % 1011,3 hPa 0,0 mm 6,0 km/h (2 Bft) NW 315 0 min -0,7 C 4,2 km/h (1 Bft)
24.04.2016 10:50 1,8 C 4,3 C 83 % 1011,3 hPa 0,0 mm 6,0 km/h (2 Bft) W-NW 292 0 min -0,8 C 3,6 km/h (1 Bft)
24.04.2016 10:55 1,9 C 4,3 C 83 % 1011,7 hPa 0,0 mm 6,0 km/h (2 Bft) NW 315 0 min -0,7 C 11,9 km/h (2 Bft)
24.04.2016 11:00 1,9 C 3,7 C 83 % 1011,7 hPa 0,7 mm 7,5 km/h (2 Bft) W-NW 292 0 min -0,7 C 7,2 km/h (2 Bft)
24.04.2016 11:05 2,0 C 3,3 C 82 % 1011,7 hPa 0,0 mm 7,5 km/h (2 Bft) W-NW 292 0 min -0,7 C 8,9 km/h (2 Bft)
24.04.2016 11:10 2,3 C 3,6 C 82 % 1011,7 hPa 0,0 mm 6,9 km/h (2 Bft) W 270 0 min -0,4 C 3,9 km/h (1 Bft)
24.04.2016 11:13 2,2 C 4,7 C 82 % 1011,8 hPa 0,7 mm 6,0 km/h (2 Bft) W-SW 247 0 min -0,5 C 4,2 km/h (1 Bft)
24.04.2016 11:15 2,2 C 4,7 C 82 % 1011,8 hPa 0,0 mm 6,0 km/h (2 Bft) W-SW 247 0 min -0,5 C 4,2 km/h (1 Bft)
24.04.2016 11:20 2,3 C 4,7 C 81 % 1011,8 hPa 0,0 mm 7,2 km/h (2 Bft) W 270 0 min -0,6 C 11,9 km/h (2 Bft)
24.04.2016 11:25 2,3 C 4,8 C 81 % 1011,8 hPa 0,0 mm 7,2 km/h (2 Bft) W-NW 292 0 min -0,6 C 8,3 km/h (2 Bft)
24.04.2016 11:30 2,6 C 4,9 C 81 % 1011,8 hPa 0,0 mm 7,5 km/h (2 Bft) W 270 0 min -0,3 C 6,9 km/h (2 Bft)
24.04.2016 11:35 2,7 C 6,2 C 80 % 1011,8 hPa 0,7 mm 8,0 km/h (2 Bft) W 270 5 min -0,4 C 8,0 km/h (2 Bft)
24.04.2016 11:40 2,7 C 5,9 C 80 % 1011,8 hPa 0,0 mm 8,3 km/h (2 Bft) W-SW 247 0 min -0,4 C 6,9 km/h (2 Bft)
24.04.2016 11:45 2,9 C 6,4 C 79 % 1011,8 hPa 0,7 mm 6,9 km/h (2 Bft) W 270 5 min -0,4 C 6,3 km/h (2 Bft)
24.04.2016 11:50 3,1 C 6,5 C 79 % 1011,8 hPa 0,0 mm 5,7 km/h (1 Bft) W 270 0 min -0,2 C 10,7 km/h (2 Bft)
24.04.2016 11:55 3,5 C 6,8 C 78 % 1011,9 hPa 0,0 mm 9,2 km/h (2 Bft) W 270 0 min 0,0 C 25,3 km/h (4 Bft)
24.04.2016 12:00 3,6 C 6,2 C 77 % 1011,9 hPa 0,0 mm 11,6 km/h (2 Bft) W-SW 247 0 min -0,0 C 12,2 km/h (2 Bft)
24.04.2016 12:05 4,2 C 7,2 C 77 % 1011,9 hPa 0,0 mm 11,3 km/h (2 Bft) W 270 0 min 0,5 C 8,9 km/h (2 Bft)
24.04.2016 12:10 4,3 C 8,3 C 76 % 1011,9 hPa 0,0 mm 10,4 km/h (2 Bft) W 270 5 min 0,5 C 10,7 km/h (2 Bft)
24.04.2016 12:15 4,5 C 10,1 C 75 % 1012,4 hPa 1,4 mm 8,6 km/h (2 Bft) W 270 5 min 0,5 C 10,7 km/h (2 Bft)
24.04.2016 12:20 4,8 C 11,5 C 75 % 1012,4 hPa 0,0 mm 8,6 km/h (2 Bft) NW 315 5 min 0,8 C 8,6 km/h (2 Bft)
24.04.2016 12:25 4,5 C 10,6 C 73 % 1012,4 hPa 0,0 mm 8,0 km/h (2 Bft) W 270 5 min 0,1 C 6,9 km/h (2 Bft)
24.04.2016 12:30 4,3 C 10,2 C 73 % 1012,4 hPa 0,0 mm 8,3 km/h (2 Bft) W-SW 247 5 min -0,1 C 11,0 km/h (2 Bft)
24.04.2016 12:35 4,1 C 7,7 C 72 % 1012,6 hPa 0,0 mm 9,5 km/h (2 Bft) W 270 5 min -0,5 C 17,9 km/h (3 Bft)
24.04.2016 12:40 4,1 C 7,3 C 72 % 1012,6 hPa 0,0 mm 9,5 km/h (2 Bft) W 270 0 min -0,5 C 3,6 km/h (1 Bft)
24.04.2016 12:45 3,7 C 7,3 C 71 % 1012,6 hPa 0,0 mm 7,2 km/h (2 Bft) NW 315 5 min -1,1 C 11,9 km/h (2 Bft)
24.04.2016 12:50 3,5 C 7,2 C 71 % 1012,6 hPa 0,0 mm 6,6 km/h (2 Bft) NW 315 5 min -1,3 C 13,1 km/h (3 Bft)
24.04.2016 12:55 2,9 C 4,4 C 73 % 1012,4 hPa 0,0 mm 8,3 km/h (2 Bft) W 270 0 min -1,5 C 16,4 km/h (3 Bft)
24.04.2016 13:00 2,5 C 3,1 C 73 % 1012,4 hPa 0,0 mm 9,2 km/h (2 Bft) NW 315 0 min -1,8 C 8,0 km/h (2 Bft)
24.04.2016 13:05 2,0 C 2,0 C 73 % 1012,4 hPa 0,0 mm 11,3 km/h (2 Bft) W 270 0 min -2,3 C 11,3 km/h (2 Bft)
24.04.2016 13:10 1,6 C 1,7 C 74 % 1012,4 hPa 0,0 mm 9,8 km/h (2 Bft) W-SW 247 0 min -2,5 C 8,9 km/h (2 Bft)
24.04.2016 13:15 1,5 C 2,5 C 75 % 1011,9 hPa 0,0 mm 3,9 km/h (1 Bft) O-NO 67 0 min -2,4 C 0,0 km/h (0 Bft)
24.04.2016 13:20 1,8 C 3,4 C 75 % 1011,9 hPa 0,0 mm 0,9 km/h (0 Bft) NW 315 0 min -2,1 C 3,6 km/h (1 Bft)
24.04.2016 13:25 3,3 C 7,2 C 75 % 1011,9 hPa 0,0 mm 2,7 km/h (1 Bft) SW 225 0 min -0,7 C 6,6 km/h (2 Bft)
24.04.2016 13:30 3,6 C 8,3 C 75 % 1011,9 hPa 0,0 mm 4,2 km/h (1 Bft) W-NW 292 5 min -0,4 C 4,5 km/h (1 Bft)
24.04.2016 13:35 3,3 C 8,0 C 75 % 1011,5 hPa 0,7 mm 5,7 km/h (1 Bft) N-NO 22 5 min -0,7 C 8,6 km/h (2 Bft)
24.04.2016 13:40 2,9 C 5,4 C 76 % 1011,5 hPa 0,0 mm 8,6 km/h (2 Bft) W 270 5 min -0,9 C 7,5 km/h (2 Bft)
24.04.2016 13:45 2,7 C 3,2 C 76 % 1011,5 hPa 0,0 mm 12,2 km/h (2 Bft) NW 315 0 min -1,1 C 25,9 km/h (4 Bft)
24.04.2016 13:50 2,6 C 2,9 C 76 % 1011,5 hPa 0,0 mm 12,8 km/h (3 Bft) W-NW 292 0 min -1,2 C 14,3 km/h (3 Bft)
24.04.2016 13:55 2,4 C 2,1 C 76 % 1011,4 hPa 0,0 mm 11,9 km/h (2 Bft) N-NW 337 0 min -1,4 C 11,6 km/h (2 Bft)
24.04.2016 14:00 2,0 C 1,6 C 76 % 1011,4 hPa 0,0 mm 12,2 km/h (2 Bft) NO 45 0 min -1,8 C 10,4 km/h (2 Bft)
24.04.2016 14:05 1,7 C 1,5 C 77 % 1011,4 hPa 0,0 mm 9,8 km/h (2 Bft) NW 315 0 min -1,9 C 10,4 km/h (2 Bft)
24.04.2016 14:10 1,9 C 2,3 C 77 % 1011,4 hPa 0,0 mm 10,4 km/h (2 Bft) NW 315 0 min -1,7 C 15,8 km/h (3 Bft)
24.04.2016 14:13 2,6 C 4,4 C 78 % 1011,2 hPa 0,0 mm 8,0 km/h (2 Bft) SW 225 0 min -0,8 C 11,3 km/h (2 Bft)
24.04.2016 14:14 2,6 C 4,4 C 78 % 1011,2 hPa 0,0 mm 8,0 km/h (2 Bft) SW 225 0 min -0,8 C 11,3 km/h (2 Bft)
24.04.2016 14:15 2,6 C 4,4 C 78 % 1011,2 hPa 0,0 mm 8,0 km/h (2 Bft) SW 225 0 min -0,8 C 11,3 km/h (2 Bft)
24.04.2016 14:20 2,5 C 5,7 C 78 % 1011,2 hPa 0,0 mm 5,7 km/h (1 Bft) NW 315 0 min -0,9 C 7,5 km/h (2 Bft)
24.04.2016 14:25 2,6 C 5,2 C 78 % 1011,2 hPa 0,0 mm 6,3 km/h (2 Bft) NW 315 0 min -0,8 C 8,0 km/h (2 Bft)
24.04.2016 14:30 2,4 C 4,7 C 78 % 1011,2 hPa 0,0 mm 6,9 km/h (2 Bft) N-NW 337 0 min -1,0 C 10,4 km/h (2 Bft)
24.04.2016 14:35 2,2 C 2,9 C 77 % 1011,2 hPa 0,0 mm 8,3 km/h (2 Bft) W 270 0 min -1,4 C 8,0 km/h (2 Bft)
24.04.2016 14:40 2,3 C 3,6 C 77 % 1011,2 hPa 0,0 mm 8,3 km/h (2 Bft) W-NW 292 0 min -1,3 C 8,9 km/h (2 Bft)
24.04.2016 14:45 3,3 C 6,4 C 77 % 1011,2 hPa 0,0 mm 7,2 km/h (2 Bft) S 180 0 min -0,3 C 13,1 km/h (3 Bft)
24.04.2016 14:50 3,3 C 6,7 C 77 % 1011,2 hPa 0,0 mm 8,0 km/h (2 Bft) W 270 0 min -0,3 C 8,3 km/h (2 Bft)
24.04.2016 14:55 3,5 C 7,1 C 77 % 1011,1 hPa 0,0 mm 8,3 km/h (2 Bft) W 270 0 min -0,1 C 10,7 km/h (2 Bft)
24.04.2016 15:00 3,6 C 7,1 C 77 % 1011,1 hPa 0,0 mm 10,1 km/h (2 Bft) W 270 5 min -0,0 C 20,0 km/h (4 Bft)
24.04.2016 15:05 4,2 C 7,1 C 77 % 1011,1 hPa 0,0 mm 13,1 km/h (3 Bft) W 270 0 min 0,5 C 20,9 km/h (4 Bft)
24.04.2016 15:10 4,5 C 7,7 C 76 % 1011,1 hPa 0,0 mm 12,8 km/h (3 Bft) W-NW 292 0 min 0,6 C 15,5 km/h (3 Bft)
24.04.2016 15:15 3,7 C 7,1 C 75 % 1010,6 hPa 0,0 mm 11,6 km/h (2 Bft) S-SW 202 5 min -0,3 C 29,5 km/h (5 Bft)
24.04.2016 15:20 3,4 C 5,8 C 75 % 1010,6 hPa 0,0 mm 11,0 km/h (2 Bft) W 270 0 min -0,6 C 13,4 km/h (3 Bft)
24.04.2016 15:25 3,0 C 4,2 C 74 % 1010,6 hPa 0,0 mm 10,7 km/h (2 Bft) W-NW 292 0 min -1,2 C 9,8 km/h (2 Bft)
24.04.2016 15:30 2,4 C 3,8 C 75 % 1010,6 hPa 0,0 mm 9,2 km/h (2 Bft) W 270 0 min -1,6 C 12,5 km/h (3 Bft)
24.04.2016 15:35 1,6 C 1,5 C 75 % 1010,7 hPa 0,0 mm 8,3 km/h (2 Bft) W-NW 292 0 min -2,3 C 33,7 km/h (5 Bft)
24.04.2016 15:40 1,3 C 1,0 C 76 % 1010,7 hPa 0,0 mm 8,9 km/h (2 Bft) W-SW 247 0 min -2,5 C 12,8 km/h (3 Bft)
24.04.2016 15:45 1,0 C 0,8 C 76 % 1010,7 hPa 0,0 mm 7,7 km/h (2 Bft) NW 315 0 min -2,7 C 9,5 km/h (2 Bft)
24.04.2016 15:50 1,0 C 0,8 C 77 % 1010,7 hPa 0,0 mm 7,2 km/h (2 Bft) NW 315 0 min -2,6 C 9,2 km/h (2 Bft)
24.04.2016 15:55 0,9 C 0,6 C 78 % 1010,5 hPa 0,0 mm 9,5 km/h (2 Bft) NW 315 0 min -2,5 C 11,0 km/h (2 Bft)
24.04.2016 16:00 0,9 C 0,3 C 78 % 1010,5 hPa 0,0 mm 12,5 km/h (3 Bft) NW 315 0 min -2,5 C 16,7 km/h (3 Bft)
24.04.2016 16:05 0,5 C 0,0 C 80 % 1010,5 hPa 0,0 mm 15,5 km/h (3 Bft) W 270 0 min -2,5 C 14,0 km/h (3 Bft)
24.04.2016 16:10 0,4 C -0,5 C 78 % 1010,5 hPa 0,0 mm 14,9 km/h (3 Bft) W 270 0 min -3,0 C 14,0 km/h (3 Bft)
24.04.2016 16:15 0,4 C 0,6 C 79 % 1010,4 hPa 0,0 mm 6,3 km/h (2 Bft) SW 225 0 min -2,8 C 8,3 km/h (2 Bft)
24.04.2016 16:20 0,5 C 1,4 C 79 % 1010,4 hPa 0,0 mm 4,8 km/h (1 Bft) N 360 0 min -2,7 C 5,1 km/h (1 Bft)
24.04.2016 16:25 0,7 C 1,8 C 79 % 1010,4 hPa 0,0 mm 6,6 km/h (2 Bft) S 180 0 min -2,5 C 11,0 km/h (2 Bft)
24.04.2016 16:30 0,8 C 1,7 C 79 % 1010,4 hPa 0,0 mm 6,9 km/h (2 Bft) W-SW 247 0 min -2,4 C 11,9 km/h (2 Bft)
24.04.2016 16:35 0,9 C 1,7 C 80 % 1010,3 hPa 0,0 mm 7,5 km/h (2 Bft) SW 225 0 min -2,2 C 8,9 km/h (2 Bft)
24.04.2016 16:40 1,0 C 1,8 C 79 % 1010,3 hPa 0,0 mm 6,6 km/h (2 Bft) W 270 0 min -2,2 C 15,8 km/h (3 Bft)
24.04.2016 16:45 1,0 C 1,5 C 80 % 1010,3 hPa 0,0 mm 6,9 km/h (2 Bft) W-SW 247 0 min -2,1 C 7,2 km/h (2 Bft)
24.04.2016 16:50 1,0 C 1,3 C 80 % 1010,3 hPa 0,0 mm 6,9 km/h (2 Bft) S-SW 202 0 min -2,1 C 6,3 km/h (2 Bft)
24.04.2016 16:55 1,0 C 1,2 C 80 % 1010,2 hPa 0,0 mm 6,6 km/h (2 Bft) W-SW 247 0 min -2,1 C 14,6 km/h (3 Bft)
24.04.2016 17:00 1,0 C 1,4 C 80 % 1010,2 hPa 0,7 mm 6,0 km/h (2 Bft) W-SW 247 0 min -2,1 C 8,3 km/h (2 Bft)
24.04.2016 17:05 1,1 C 1,4 C 80 % 1010,2 hPa 0,0 mm 6,3 km/h (2 Bft) W-SW 247 0 min -2,0 C 7,2 km/h (2 Bft)
24.04.2016 17:10 1,1 C 1,5 C 81 % 1010,2 hPa 0,0 mm 5,4 km/h (1 Bft) S-SO 157 0 min -1,8 C 6,3 km/h (2 Bft)
24.04.2016 17:13 1,3 C 1,7 C 81 % 1010,3 hPa 0,0 mm 5,7 km/h (1 Bft) W-SW 247 0 min -1,6 C 6,9 km/h (2 Bft)
24.04.2016 17:15 1,3 C 1,7 C 81 % 1010,3 hPa 0,0 mm 5,7 km/h (1 Bft) W-SW 247 0 min -1,6 C 6,9 km/h (2 Bft)
24.04.2016 17:20 1,4 C 1,7 C 81 % 1010,3 hPa 0,0 mm 7,7 km/h (2 Bft) W-SW 247 0 min -1,5 C 17,3 km/h (3 Bft)
24.04.2016 17:25 1,4 C 1,6 C 81 % 1010,3 hPa 0,0 mm 10,1 km/h (2 Bft) SW 225 0 min -1,5 C 20,3 km/h (4 Bft)
24.04.2016 17:30 1,1 C 1,3 C 81 % 1010,3 hPa 0,0 mm 11,0 km/h (2 Bft) SW 225 0 min -1,8 C 9,8 km/h (2 Bft)
24.04.2016 17:35 1,0 C 1,0 C 80 % 1010,4 hPa 0,0 mm 10,4 km/h (2 Bft) SW 225 0 min -2,1 C 15,5 km/h (3 Bft)
24.04.2016 17:40 0,9 C 0,9 C 80 % 1010,4 hPa 0,0 mm 10,7 km/h (2 Bft) W 270 0 min -2,2 C 20,9 km/h (4 Bft)
24.04.2016 17:45 0,9 C 0,9 C 80 % 1010,4 hPa 0,0 mm 11,6 km/h (2 Bft) W-NW 292 0 min -2,2 C 5,7 km/h (1 Bft)
24.04.2016 17:50 1,0 C 1,0 C 80 % 1010,4 hPa 0,0 mm 11,6 km/h (2 Bft) S 180 0 min -2,1 C 17,3 km/h (3 Bft)
24.04.2016 17:55 1,0 C 1,1 C 80 % 1010,5 hPa 0,7 mm 10,1 km/h (2 Bft) W 270 0 min -2,1 C 7,7 km/h (2 Bft)
24.04.2016 18:00 1,0 C 1,0 C 79 % 1010,5 hPa 0,0 mm 9,5 km/h (2 Bft) W-SW 247 0 min -2,2 C 21,5 km/h (4 Bft)
24.04.2016 18:05 0,9 C 0,8 C 80 % 1010,5 hPa 0,0 mm 8,9 km/h (2 Bft) W-SW 247 0 min -2,2 C 13,1 km/h (3 Bft)
24.04.2016 18:10 0,8 C 0,6 C 80 % 1010,5 hPa 0,0 mm 9,2 km/h (2 Bft) W-SW 247 0 min -2,2 C 13,4 km/h (3 Bft)
24.04.2016 18:15 0,6 C 0,5 C 80 % 1010,4 hPa 0,0 mm 10,1 km/h (2 Bft) W-SW 247 0 min -2,4 C 36,7 km/h (5 Bft)
24.04.2016 18:20 0,6 C 0,5 C 80 % 1010,4 hPa 0,0 mm 9,2 km/h (2 Bft) W-SW 247 0 min -2,4 C 13,4 km/h (3 Bft)
24.04.2016 18:25 0,4 C 0,4 C 80 % 1010,4 hPa 0,0 mm 6,9 km/h (2 Bft) SW 225 0 min -2,6 C 4,8 km/h (1 Bft)
24.04.2016 18:30 0,4 C 0,2 C 81 % 1010,4 hPa 0,0 mm 7,7 km/h (2 Bft) W-SW 247 0 min -2,5 C 26,2 km/h (4 Bft)
24.04.2016 18:35 0,3 C -0,3 C 81 % 1010,5 hPa 0,0 mm 11,6 km/h (2 Bft) W-SW 247 0 min -2,6 C 13,4 km/h (3 Bft)
24.04.2016 18:40 0,3 C -0,4 C 82 % 1010,5 hPa 0,0 mm 13,4 km/h (3 Bft) SW 225 0 min -2,4 C 18,2 km/h (3 Bft)
24.04.2016 18:45 0,3 C -0,3 C 82 % 1010,5 hPa 0,0 mm 12,2 km/h (2 Bft) S-SW 202 0 min -2,4 C 12,2 km/h (2 Bft)
24.04.2016 18:50 0,3 C -0,2 C 82 % 1010,5 hPa 0,0 mm 11,0 km/h (2 Bft) S 180 0 min -2,4 C 11,3 km/h (2 Bft)
24.04.2016 18:55 0,4 C 0,1 C 83 % 1010,4 hPa 0,0 mm 7,5 km/h (2 Bft) W 270 0 min -2,1 C 13,7 km/h (3 Bft)
24.04.2016 19:00 0,4 C 0,2 C 83 % 1010,4 hPa 0,0 mm 7,7 km/h (2 Bft) S 180 0 min -2,1 C 18,5 km/h (3 Bft)
24.04.2016 19:05 0,4 C 0,1 C 83 % 1010,4 hPa 0,0 mm 8,3 km/h (2 Bft) S-SW 202 0 min -2,1 C 11,0 km/h (2 Bft)
24.04.2016 19:10 0,4 C 0,2 C 83 % 1010,4 hPa 0,0 mm 7,7 km/h (2 Bft) W 270 0 min -2,1 C 7,7 km/h (2 Bft)
24.04.2016 19:15 0,4 C 0,2 C 83 % 1010,4 hPa 0,0 mm 6,9 km/h (2 Bft) W-SW 247 0 min -2,1 C 7,7 km/h (2 Bft)
24.04.2016 19:20 0,5 C 0,3 C 83 % 1010,4 hPa 0,0 mm 6,9 km/h (2 Bft) SW 225 0 min -2,0 C 6,0 km/h (2 Bft)
24.04.2016 19:25 0,5 C 0,3 C 83 % 1010,4 hPa 0,0 mm 6,6 km/h (2 Bft) W 270 0 min -2,0 C 5,7 km/h (1 Bft)
24.04.2016 19:30 0,5 C 0,4 C 83 % 1010,4 hPa 0,0 mm 6,0 km/h (2 Bft) S-SW 202 0 min -2,0 C 5,4 km/h (1 Bft)
24.04.2016 19:35 0,5 C 0,2 C 82 % 1010,6 hPa 0,0 mm 6,3 km/h (2 Bft) N-NW 337 0 min -2,2 C 8,3 km/h (2 Bft)
24.04.2016 19:40 0,4 C 0,0 C 82 % 1010,6 hPa 0,0 mm 7,2 km/h (2 Bft) W 270 0 min -2,3 C 16,1 km/h (3 Bft)
24.04.2016 19:45 0,3 C -0,3 C 84 % 1010,6 hPa 0,0 mm 6,9 km/h (2 Bft) W-SW 247 0 min -2,1 C 9,2 km/h (2 Bft)
24.04.2016 19:50 0,2 C -0,3 C 84 % 1010,6 hPa 0,0 mm 6,6 km/h (2 Bft) NW 315 0 min -2,2 C 11,6 km/h (2 Bft)
24.04.2016 19:55 0,2 C -0,4 C 84 % 1010,5 hPa 0,0 mm 6,6 km/h (2 Bft) W-SW 247 0 min -2,2 C 11,0 km/h (2 Bft)
24.04.2016 20:00 0,2 C -0,5 C 84 % 1010,5 hPa 0,0 mm 7,5 km/h (2 Bft) W-SW 247 0 min -2,2 C 8,3 km/h (2 Bft)
24.04.2016 20:05 0,2 C -0,3 C 84 % 1010,5 hPa 0,0 mm 5,7 km/h (1 Bft) N-NW 337 0 min -2,2 C 7,5 km/h (2 Bft)
24.04.2016 20:10 0,2 C -0,3 C 84 % 1010,5 hPa 0,0 mm 5,4 km/h (1 Bft) W-SW 247 0 min -2,2 C 3,9 km/h (1 Bft)
24.04.2016 20:13 0,3 C -0,1 C 85 % 1010,5 hPa 0,0 mm 4,5 km/h (1 Bft) NW 315 0 min -1,9 C 8,9 km/h (2 Bft)
24.04.2016 20:16 0,3 C -0,1 C 85 % 1010,5 hPa 0,0 mm 4,5 km/h (1 Bft) NW 315 0 min -1,9 C 8,9 km/h (2 Bft)
24.04.2016 20:20 0,3 C 0,0 C 85 % 1010,5 hPa 0,0 mm 4,5 km/h (1 Bft) W 270 0 min -1,9 C 3,6 km/h (1 Bft)
24.04.2016 20:25 0,3 C -0,2 C 85 % 1010,5 hPa 0,0 mm 6,0 km/h (2 Bft) S 180 0 min -1,9 C 9,8 km/h (2 Bft)
24.04.2016 20:30 0,3 C -0,2 C 85 % 1010,5 hPa 0,0 mm 5,7 km/h (1 Bft) NW 315 0 min -1,9 C 6,6 km/h (2 Bft)
24.04.2016 20:35 0,2 C 0,0 C 85 % 1010,6 hPa 0,0 mm 3,9 km/h (1 Bft) S 180 0 min -2,0 C 7,7 km/h (2 Bft)
24.04.2016 20:40 0,2 C -0,1 C 85 % 1010,6 hPa 0,0 mm 3,6 km/h (1 Bft) S 180 0 min -2,0 C 8,3 km/h (2 Bft)
24.04.2016 20:45 0,1 C -0,4 C 85 % 1010,6 hPa 0,0 mm 5,7 km/h (1 Bft) S-SW 202 0 min -2,1 C 0,0 km/h (0 Bft)
24.04.2016 20:50 0,1 C -0,4 C 85 % 1010,6 hPa 0,0 mm 6,0 km/h (2 Bft) W-SW 247 0 min -2,1 C 3,6 km/h (1 Bft)
24.04.2016 20:55 0,0 C -0,4 C 85 % 1010,6 hPa 0,0 mm 4,8 km/h (1 Bft) SW 225 0 min -2,2 C 7,2 km/h (2 Bft)
24.04.2016 21:00 -0,1 C -0,5 C 85 % 1010,6 hPa 0,0 mm 4,5 km/h (1 Bft) W-SW 247 0 min -2,3 C 8,3 km/h (2 Bft)
24.04.2016 21:05 -0,1 C -0,8 C 84 % 1010,6 hPa 0,0 mm 6,6 km/h (2 Bft) W-SW 247 0 min -2,5 C 13,4 km/h (3 Bft)
24.04.2016 21:10 -0,1 C -0,8 C 84 % 1010,6 hPa 0,0 mm 6,6 km/h (2 Bft) W-SW 247 0 min -2,5 C 4,8 km/h (1 Bft)
24.04.2016 21:15 -0,2 C -0,8 C 84 % 1010,6 hPa 0,0 mm 5,4 km/h (1 Bft) S 180 0 min -2,6 C 5,1 km/h (1 Bft)
24.04.2016 21:20 -0,2 C -0,6 C 84 % 1010,6 hPa 0,0 mm 3,6 km/h (1 Bft) SW 225 0 min -2,6 C 0,0 km/h (0 Bft)
24.04.2016 21:25 -0,2 C -0,6 C 85 % 1010,6 hPa 0,0 mm 1,5 km/h (1 Bft) NW 315 0 min -2,4 C 0,0 km/h (0 Bft)
24.04.2016 21:30 -0,3 C -0,7 C 85 % 1010,6 hPa 0,0 mm 1,2 km/h (1 Bft) S 180 0 min -2,5 C 5,4 km/h (1 Bft)
24.04.2016 21:35 -0,4 C -0,8 C 85 % 1011,0 hPa 0,0 mm 1,5 km/h (1 Bft) W-NW 292 0 min -2,6 C 0,0 km/h (0 Bft)
24.04.2016 21:40 -0,5 C -0,9 C 85 % 1011,0 hPa 0,0 mm 1,5 km/h (1 Bft) SW 225 0 min -2,7 C 3,6 km/h (1 Bft)
24.04.2016 21:45 -0,5 C -0,9 C 85 % 1011,0 hPa 0,0 mm 0,6 km/h (0 Bft) O-NO 67 0 min -2,7 C 0,0 km/h (0 Bft)
24.04.2016 21:50 -0,4 C -0,9 C 85 % 1011,0 hPa 0,0 mm 0,6 km/h (0 Bft) W-SW 247 0 min -2,6 C 0,0 km/h (0 Bft)
24.04.2016 21:55 -0,2 C -0,6 C 85 % 1010,9 hPa 0,0 mm 3,3 km/h (1 Bft) SO 135 0 min -2,4 C 5,7 km/h (1 Bft)
24.04.2016 22:00 -0,1 C -0,5 C 85 % 1010,9 hPa 0,0 mm 4,5 km/h (1 Bft) SO 135 0 min -2,3 C 3,0 km/h (1 Bft)
24.04.2016 22:05 0,0 C -0,3 C 85 % 1010,9 hPa 0,0 mm 3,9 km/h (1 Bft) W-SW 247 0 min -2,2 C 3,0 km/h (1 Bft)
24.04.2016 22:10 0,1 C -0,2 C 85 % 1010,9 hPa 0,0 mm 3,3 km/h (1 Bft) W 270 0 min -2,1 C 0,0 km/h (0 Bft)
24.04.2016 22:15 0,1 C -0,2 C 85 % 1010,6 hPa 0,0 mm 0,9 km/h (0 Bft) W-SW 247 0 min -2,1 C 0,0 km/h (0 Bft)
24.04.2016 22:20 0,1 C -0,2 C 85 % 1010,6 hPa 0,0 mm 0,6 km/h (0 Bft) W 270 0 min -2,1 C 0,0 km/h (0 Bft)
24.04.2016 22:25 0,1 C -0,2 C 85 % 1010,6 hPa 0,0 mm 0,0 km/h (0 Bft) S-SO 157 0 min -2,1 C 0,0 km/h (0 Bft)
24.04.2016 22:30 0,1 C -0,2 C 85 % 1010,6 hPa 0,0 mm 0,0 km/h (0 Bft) W-NW 292 0 min -2,1 C 0,0 km/h (0 Bft)
24.04.2016 22:35 0,1 C -0,2 C 85 % 1010,5 hPa 0,0 mm 0,0 km/h (0 Bft) W-NW 292 0 min -2,1 C 0,0 km/h (0 Bft)
24.04.2016 22:40 0,1 C -0,2 C 85 % 1010,5 hPa 0,0 mm 2,7 km/h (1 Bft) W-NW 292 0 min -2,1 C 14,0 km/h (3 Bft)
24.04.2016 22:45 0,1 C -0,5 C 86 % 1010,5 hPa 0,0 mm 7,5 km/h (2 Bft) NW 315 0 min -2,0 C 18,8 km/h (3 Bft)
24.04.2016 22:50 -0,1 C -0,9 C 86 % 1010,5 hPa 0,0 mm 9,5 km/h (2 Bft) NW 315 0 min -2,2 C 9,5 km/h (2 Bft)
24.04.2016 22:55 -0,3 C -0,8 C 86 % 1010,8 hPa 0,0 mm 7,2 km/h (2 Bft) SW 225 0 min -2,3 C 3,0 km/h (1 Bft)
24.04.2016 23:00 -0,4 C -0,8 C 86 % 1010,8 hPa 0,0 mm 5,7 km/h (1 Bft) NW 315 0 min -2,4 C 6,6 km/h (2 Bft)
24.04.2016 23:05 -0,4 C -0,9 C 86 % 1010,8 hPa 0,0 mm 6,6 km/h (2 Bft) W-NW 292 0 min -2,4 C 13,1 km/h (3 Bft)
24.04.2016 23:10 -0,4 C -0,9 C 86 % 1010,8 hPa 0,0 mm 6,6 km/h (2 Bft) W 270 0 min -2,4 C 3,6 km/h (1 Bft)
24.04.2016 23:15 -0,4 C -0,7 C 87 % 1010,6 hPa 0,0 mm 4,8 km/h (1 Bft) W 270 0 min -2,3 C 6,3 km/h (2 Bft)
24.04.2016 23:17 -0,4 C -0,7 C 87 % 1010,6 hPa 0,0 mm 4,8 km/h (1 Bft) W 270 0 min -2,3 C 6,3 km/h (2 Bft)
24.04.2016 23:20 -0,4 C -0,7 C 87 % 1010,6 hPa 0,0 mm 4,8 km/h (1 Bft) W 270 0 min -2,3 C 0,0 km/h (0 Bft)
24.04.2016 23:25 -0,5 C -0,6 C 83 % 1010,6 hPa 0,0 mm 3,9 km/h (1 Bft) SW 225 0 min -3,0 C 9,8 km/h (2 Bft)
24.04.2016 23:30 -0,5 C -0,6 C 83 % 1010,6 hPa 0,0 mm 3,6 km/h (1 Bft) SW 225 0 min -3,0 C 5,7 km/h (1 Bft)
24.04.2016 23:35 -0,4 C -0,6 C 87 % 1010,8 hPa 0,0 mm 3,9 km/h (1 Bft) W-NW 292 0 min -2,3 C 4,2 km/h (1 Bft)
24.04.2016 23:40 -0,4 C -0,6 C 87 % 1010,8 hPa 0,0 mm 3,3 km/h (1 Bft) W-SW 247 0 min -2,3 C 6,6 km/h (2 Bft)
24.04.2016 23:45 -0,3 C -0,5 C 87 % 1010,8 hPa 0,0 mm 3,0 km/h (1 Bft) W 270 0 min -2,2 C 5,1 km/h (1 Bft)
24.04.2016 23:50 -0,3 C -0,5 C 87 % 1010,8 hPa 0,0 mm 3,0 km/h (1 Bft) W-NW 292 0 min -2,2 C 4,2 km/h (1 Bft)
24.04.2016 23:55 -0,3 C -0,6 C 88 % 1010,7 hPa 0,0 mm 5,1 km/h (1 Bft) W 270 0 min -2,0 C 8,3 km/h (2 Bft)
_ Min-Zeit 23:30 23:10 12:50 17:10 - 22:35 - - - 23:30 23:20
Minimum _ -0,5 C -0,9 C 71 % 1010,2 hPa - 0,0 km/h (0 Bft) - - - -3,0 C 0,0 km/h (0 Bft)
_ Max-Zeit 12:20 12:20 00:50 12:50 12:15 16:05 - - 15:15 12:20 18:15
Maximum _ 4,8 C 11,5 C 90 % 1012,6 hPa 1,4 mm 15,5 km/h
W (3 Bft)
- - 5 min 0,8 C 36,7 km/h
W-SW (5 Bft)
Durchschnitt _ 0,8 C 1,2 C 83 % 1011,0 hPa #7,6 mm 4,9 km/h (1 Bft) W-NW - #1:15 h -1,7 C 6,8 km/h (2 Bft)